STARLINK-1301, 45361

Orbit data source: Space-Track

STARLINK-1301, 45361 is a payload satellite owned by SpaceX/Seattle (US) in LEO that was launched on Wed, 18 Mar 2020 UTC via an FALCON 9 launch vehicle from the Air Force Eastern Test Range (AFETR). Payload-class satellites include a variety of spacecraft equipped with specific instruments for various scientific and technological missions. These include communications satellites like Starlink; space stations such as the ISS; scientific satellites like the Hubble; Earth observation satellites from companies like Planet Labs, Umbra, and HawkEye 360; GPS; miniature CubeSats for education and research; and military/defense satellites.

Loading next visibility...
Identifier
45361, 2020-019B
Orbit
LEO
Last TLE update
1 day ago
Origin
Manufacturer
SpaceX/Seattle
Mission
Operational Commercial Communications
Bus & Motor
STARLINK, Unknown motor
Mass
260 kg wet, ~248 kg dry
Launch date (UTC)
2020-03-18 (5 years ago)
Launch vehicle
FALCON 9
Launch site
Air Force Eastern Test Range (AFETR)
Object type
Payload
Rocket body
Debris
Shape & HBR
Box + 1 Pan, 8.86 m
Radar Cross Section
13.562 m², Large (>1 m²)

Expand to show TLE details & history

TLE from 1 day ago
0 STARLINK-1301
1 45361U 20019B   25128.13321126 -.00001781  00000-0 -10074-3 0  9992
2 45361  53.0556  78.3126 0001432  93.8557 266.2596 15.06387863283959
Epoch: 2025-05-08T03:11Z
Definitive object data (Epoch: 2025-05-08T03:11:49.452Z)
Latitude
-0.00002°
Longitude
164.14845°
Altitude
548.193 km
Speed
7.589 km/s
True Right ascension
05h 13m 15s
True Declination
0° 00' 00"
Sunlit
Object was in daylight at TLE epoch
Visualization TLE readout
Latitude
48.98612°
Longitude
-80.31834°
Altitude
551.878 km
Speed
7.592 km/s
Apparent Right ascension
07h 23m 26s
Apparent Declination
24° 56' 21"
Sunlit
Object is in daylight
Visualization observer readout
Local Sidereal Time
14:53:56
Azimuth
303.178° NW
Elevation
0.172°
Doppler factor
1
Orbital elements
Apogee altitude
548.511 km
Perigee altitude
546.528 km
Semi-major axis
6,925.656 km
Eccentricity
0.0001432
Inclination
53.0556°
RAAN
78.3126°
Arg. of periapsis
93.8557°
True anomaly
266.24323°
Mean anomaly
266.2596°
Eccentric anomaly
266.25141°
Mean motion
3.76575 °/min
BSTAR
-0.00010074
Orbital period
95.6 mins
Loading maneuver chart data...
Loading SW <> Apogee altitude chart data...
Loading historical data...
Loading historical data...
Loading historical data...
Loading historical data...
Loading historical data...
Loading historical data...
Loading historical data...

STARLINK-1301 Visibility forecast

Observer location: undefined°, undefined°

Span
Click to sort rows by Start time (UTC) header in descending order
Start Az.
Max El. time (UTC)
Max El. Az.
Max El.
End time (UTC)
End Az.
6 mins2025-05-09 06:48:03.800Z291.075° WNW2025-05-09 06:51:03.800Z231.082° WSW31.416°2025-05-09 06:54:03.800Z164.946° S
5 mins2025-05-09 22:22:03.800Z186.831° SSW2025-05-09 22:24:03.800Z131.797° SE32.382°2025-05-09 22:27:03.800Z68.592° E
6 mins2025-05-10 00:01:03.800Z274.485° WNW2025-05-10 00:04:03.800Z345.453° N28.071°2025-05-10 00:07:03.800Z34.404° NE
6 mins2025-05-10 05:03:03.800Z331.165° NNW2025-05-10 05:05:03.800Z17.624° NNE33.659°2025-05-10 05:09:03.800Z104.427° ESE
|